User: anonymous   Login
Location: Goheenville
(40.9070°N, 79.3720°W)
Time: 09:14:15
(UTC-04:00)
Language:

Meteor 2-10 Rocket - Orbit

View from above orbital plane
View from above orbital plane
View from above satellite
View from above satellite

Ground track
Ground track

The orbit data is extracted from the following two-line orbital elements,

1 14453U 83109B   15106.81115650  .00000190  00000-0  72320-4 0  9996
2 14453 081.1684 183.3845 0104889 195.2714 164.5293 14.24586647634705
Epoch (UTC): 16 April 2015 19:28:03
Eccentricity: 0.0104889
inclination: 81.1684°
perigee height: 734 km
apogee height: 885 km
right ascension of ascending node: 183.3845°
argument of perigee: 195.2714°
revolutions per day: 14.24586647
mean anomaly at epoch: 164.5293°
orbit number at epoch: 63470

The dashed part of the orbit path shows where the satellite is in the earth's shadow,  

DLR